Temp
40 34 31 34 38 37 41 37 36 41 47 43 42 43 48 50 49 46 48 51 53 57 59 61 63 63 64 64 65 66 67 69 70 68 66 65 67 68 67 69 72 72 69 69
36 32 38 41 39 38 41 38 38 44 46 46 43 41 48 50 47 47 48 50 53 56 58 59 60 60 63 65 66 65 68 67 69 70 69 67 67 65 67 68 69 70 70 70
34 38 42 38 36 37 38 40 41 41 45 45 43 39 42 48 50 51 51 51 53 55 57 58 57 59 60 61 63 65 65 67 67 68 66 64 64 64 63 64 64 65 66 66
39 43 39 36 38 42 36 46 45 42 39 35 43 31 41 47 48 50 50 49 51 54 56 57 58 57 59 62 61 64 65 65 66 64 64 64 62 62 63 63 61 61 62 62
36 39 36 36 40 44 40 48 44 42 38 37 38 34 40 44 45 48 48 49 51 52 54 57 58 59 60 60 60 61 62 63 64 64 65 64 62 62 61 60 60 58 58 59
40 45 42 40 44 46 48 44 41 39 37 28 36 35 38 38 44 49 53 49 51 53 53 55 57 59 58 57 57 58 60 61 60 62 62 62 62 60 59 58 58 57 57 56
37 37 44 44 41 46 44 39 29 27 27 28 38 34 38 46 49 48 51 50 51 52 51 53 53 54 56 56 56 56 57 57 57 58 59 60 60 59 59 58 57 56 55 55
30 24 39 43 39 39 37 37 29 24 22 25 37 32 39 47 49 49 51 50 50 50 49 51 52 53 53 55 55 56 56 55 55 55 56 56 57 57 57 57 56 55 55 54
27 30 43 45 44 42 38 34 39 30 29 25 30 35 46 48 48 48 49 50 50 50 50 50 51 51 52 52 53 53 54 55 54 54 54 54 55 54 54 54 54 53 52 52
33 28 38 43 46 45 39 44 32 30 26 22 25 29 34 41 45 48 47 47 47 48 49 50 49 49 49 49 50 51 52 52 52 53 52 52 52 53 53 54 52 52 51 51
36 32 32 39 35 35 40 35 34 33 28 24 23 29 38 43 45 43 43 46 46 47 48 48 49 48 48 49 50 50 51 51 50 50 50 49 50 50 52 53 53 52 50 49
37 33 24 30 39 41 39 35 34 25 26 22 25 30 42 41 42 45 45 49 48 49 49 47 47 47 47 48 48 49 49 50 50 50 50 48 49 50 51 48 51 51 50 49
38 29 19 26 33 39 35 37 37 33 30 23 22 30 44 42 44 44 43 45 48 48 48 48 47 47 46 46 47 48 48 49 49 49 48 48 48 48 46 46 46 48 47 46
44 32 29 22 28 33 31 34 36 33 22 27 27 33 39 41 42 44 45 46 48 48 49 47 46 47 46 46 46 47 47 47 47 47 47 47 48 48 45 46 47 45 47 45
39 29 26 32 34 33 33 33 34 27 33 29 35 35 41 43 44 45 46 47 47 48 48 48 47 46 45 45 45 46 46 46 46 45 45 45 46 48 48 46 45 45 45 44
38 27 28 28 35 33 32 34 34 34 34 35 35 35 48 49 45 45 46 47 47 48 48 48 48 47 47 45 46 46 45 45 45 44 44 44 43 43 42 41 40 40 39 39
35 31 27 23 30 32 26 32 33 33 35 36 31 39 41 42 45 45 46 47 47 47 47 47 47 47 46 47 48 46 45 44 43 43 43 43 42 41 40 40 39 38 37 37
35 32 29 21 27 16 33 38 39 37 39 39 39 40 41 42 43 45 44 43 45 46 47 47 46 45 46 47 46 47 45 44 44 43 42 42 41 40 39 38 37 36 35 35
37 32 27 23 21 28 32 36 35 32 35 39 38 40 42 43 42 42 45 44 45 44 45 44 44 44 44 45 46 45 43 45 44 44 43 42 42 40 38 37 36 35 35 34
36 34 32 24 21 21 31 38 40 38 28 40 40 40 40 40 33 38 44 45 46 45 44 43 43 43 42 45 45 44 43 43 44 44 44 43 42 41 39 38 36 35 35 33
28 28 25 26 24 28 36 39 40 25 29 39 40 39 39 37 39 43 44 43 44 44 44 43 42 41 41 41 42 43 43 43 47 44 43 42 42 41 40 37 35 35 33 35
29 25 25 25 22 20 38 37 30 35 38 39 40 40 39 40 43 43 45 45 45 43 43 44 41 41 41 41 41 41 41 44 43 45 43 41 40 41 39 37 34 34 34 36
28 32 29 30 29 38 37 38 40 40 38 39 38 40 40 40 41 42 43 45 46 46 43 43 41 40 41 41 41 41 40 42 43 44 43 42 41 41 39 37 34 35 36 36
30 33 31 32 33 35 38 38 39 39 37 38 40 41 42 40 43 43 44 45 46 48 45 43 41 40 39 40 42 42 41 42 43 44 43 42 41 39 38 37 36 34 34 35
32 33 32 31 32 35 35 36 35 36 37 38 39 40 40 42 41 42 44 45 45 45 47 43 41 41 41 41 40 40 43 44 43 42 41 40 40 39 37 38 38 37 38 39
33 33 30 29 35 34 34 36 37 35 35 38 40 39 41 41 40 41 43 45 45 44 46 44 43 41 42 42 42 42 43 44 42 40 40 39 39 38 37 37 36 41 41 41
MSLP
1014.93 1014.67 1014.23 1013.82 1013.46 1012.80 1012.15 1012.21 1012.80 1013.15 1012.89 1013.88 1013.45 1014.15 1013.27 1012.95 1012.80 1012.76 1012.99 1012.85 1012.54 1012.04 1011.89 1012.21 1012.32 1012.44 1012.79 1013.24 1013.73 1014.02 1014.35 1014.12 1014.65 1015.10 1015.42 1015.40 1015.64 1015.44 1015.95 1015.53 1016.00 1016.36 1016.78 1017.07
1014.83 1014.03 1013.63 1013.49 1013.06 1012.51 1012.15 1012.00 1012.65 1013.34 1013.51 1013.54 1013.85 1014.30 1012.86 1012.64 1012.74 1012.93 1013.09 1013.20 1012.99 1012.52 1011.86 1011.86 1011.98 1012.22 1012.58 1012.41 1013.03 1013.42 1013.53 1013.82 1013.89 1014.40 1014.76 1015.06 1015.04 1015.25 1015.62 1015.39 1015.57 1015.83 1016.24 1016.66
1013.99 1013.38 1013.21 1013.11 1012.91 1012.35 1011.51 1011.40 1011.62 1012.57 1013.54 1014.17 1014.45 1014.16 1013.24 1012.97 1012.49 1012.45 1012.84 1012.87 1013.01 1013.19 1012.59 1012.16 1012.04 1012.09 1012.34 1012.53 1012.86 1012.88 1013.15 1013.35 1013.76 1013.93 1014.35 1014.83 1015.07 1015.08 1015.67 1015.52 1015.80 1015.79 1015.98 1016.49
1013.28 1012.98 1012.71 1012.97 1012.46 1011.38 1011.07 1010.88 1011.35 1012.36 1013.64 1013.94 1014.14 1014.44 1013.76 1012.83 1012.39 1012.53 1012.26 1012.69 1012.82 1012.91 1012.90 1012.68 1012.59 1012.57 1012.57 1012.47 1012.86 1012.77 1012.86 1013.04 1013.41 1013.70 1014.21 1014.28 1014.66 1014.76 1014.90 1015.06 1015.51 1015.59 1015.66 1016.24
1013.15 1012.76 1012.66 1012.69 1011.73 1011.03 1011.02 1010.71 1011.18 1012.12 1013.89 1015.04 1015.01 1014.35 1012.94 1012.47 1012.42 1012.35 1012.30 1012.37 1012.28 1012.49 1012.54 1012.57 1012.51 1012.47 1012.35 1012.20 1012.51 1012.97 1013.04 1012.96 1013.01 1013.22 1013.76 1014.01 1014.38 1014.44 1014.46 1015.20 1015.89 1016.32 1016.58 1016.87
1013.18 1012.71 1012.24 1012.20 1011.60 1010.83 1011.10 1012.05 1013.28 1014.33 1014.69 1015.54 1014.82 1014.79 1012.92 1012.72 1011.94 1011.47 1011.34 1011.57 1011.55 1011.83 1012.00 1012.12 1011.93 1012.25 1012.27 1012.12 1012.26 1012.63 1012.83 1012.97 1013.03 1013.16 1013.46 1013.90 1014.25 1014.56 1015.14 1015.72 1016.09 1017.04 1017.50 1017.37
1013.78 1013.61 1012.95 1012.64 1012.02 1011.86 1012.19 1012.72 1014.40 1015.54 1015.92 1015.43 1014.34 1014.62 1012.48 1011.55 1010.89 1010.62 1010.47 1010.57 1010.82 1011.02 1011.35 1011.76 1012.21 1012.26 1012.10 1012.16 1012.03 1012.24 1012.55 1012.76 1013.06 1013.34 1013.49 1013.85 1014.23 1014.70 1015.04 1015.78 1016.47 1017.53 1017.70 1017.72
1014.48 1014.55 1014.04 1013.54 1013.34 1013.31 1013.47 1013.08 1013.66 1014.97 1015.74 1015.59 1014.91 1013.83 1011.83 1010.68 1010.17 1009.93 1009.96 1010.07 1010.46 1010.97 1011.32 1011.79 1012.01 1012.05 1012.05 1011.97 1011.95 1012.19 1012.48 1012.96 1013.26 1013.55 1014.00 1014.16 1014.26 1014.54 1015.06 1015.71 1016.46 1017.51 1018.19 1018.46
1014.99 1015.11 1014.49 1013.94 1013.63 1013.75 1013.51 1013.43 1014.54 1015.08 1016.10 1015.68 1015.46 1013.71 1011.86 1011.00 1010.57 1010.26 1010.19 1010.52 1010.95 1011.29 1011.61 1011.89 1011.89 1011.79 1011.69 1011.85 1011.98 1012.13 1012.48 1013.08 1013.66 1013.99 1014.18 1014.60 1014.83 1014.98 1015.15 1015.79 1016.03 1017.02 1017.83 1018.55
1014.49 1015.22 1015.18 1014.43 1014.13 1013.97 1013.94 1014.11 1014.85 1015.48 1016.64 1016.58 1015.75 1014.58 1013.12 1011.83 1011.25 1010.96 1011.31 1011.66 1011.82 1011.89 1011.93 1012.15 1012.30 1012.15 1012.13 1012.25 1012.29 1012.50 1012.88 1013.16 1013.58 1013.99 1014.15 1014.55 1015.00 1015.47 1015.80 1015.28 1016.61 1017.13 1017.88 1018.66
1014.30 1015.01 1015.85 1015.09 1014.78 1014.50 1014.02 1014.09 1014.78 1015.72 1016.91 1017.20 1016.81 1015.00 1013.42 1012.69 1012.12 1011.98 1012.25 1012.26 1012.19 1012.24 1012.43 1012.57 1012.58 1012.42 1012.24 1012.32 1012.41 1012.65 1013.13 1013.57 1014.07 1014.33 1014.56 1014.99 1015.38 1015.73 1015.93 1015.54 1015.91 1016.60 1017.19 1018.54
1014.43 1015.25 1016.26 1015.94 1015.25 1014.93 1014.88 1015.22 1015.86 1016.66 1017.97 1018.05 1017.31 1015.47 1013.80 1012.99 1012.71 1012.70 1012.80 1012.66 1012.61 1012.56 1012.72 1012.85 1012.72 1012.58 1012.44 1012.55 1012.67 1012.89 1013.18 1013.59 1014.06 1014.46 1014.82 1015.23 1015.70 1016.36 1016.50 1016.70 1016.13 1016.26 1016.59 1017.40
1014.51 1015.68 1016.69 1016.67 1016.31 1015.48 1015.39 1015.59 1016.17 1016.65 1017.25 1017.62 1017.05 1015.42 1013.96 1013.31 1013.15 1013.19 1013.22 1013.04 1012.91 1013.05 1013.08 1012.96 1012.81 1012.75 1012.74 1012.78 1012.88 1013.04 1013.23 1013.54 1014.05 1014.50 1014.82 1015.44 1016.06 1016.19 1016.94 1017.23 1016.82 1017.27 1017.72 1018.01
1014.62 1015.94 1016.43 1016.63 1016.31 1016.11 1016.07 1015.94 1016.07 1016.73 1017.81 1017.53 1016.77 1015.37 1014.03 1013.55 1013.50 1013.39 1013.18 1012.96 1012.99 1013.08 1013.12 1013.11 1013.09 1012.97 1012.77 1012.86 1013.15 1013.25 1013.52 1013.84 1014.26 1014.58 1015.02 1015.56 1016.08 1016.19 1017.00 1017.03 1017.07 1017.56 1018.40 1018.59
1015.15 1016.40 1016.81 1016.79 1016.55 1016.34 1016.15 1016.08 1016.25 1016.75 1016.80 1016.75 1015.94 1015.23 1014.29 1013.73 1013.42 1013.20 1013.13 1013.08 1013.03 1013.01 1013.07 1012.93 1012.98 1013.18 1013.16 1013.37 1013.58 1013.67 1013.87 1014.13 1014.44 1014.71 1015.01 1015.30 1015.58 1016.08 1016.66 1017.04 1017.35 1018.04 1018.42 1019.01
1015.81 1016.99 1017.27 1017.50 1017.00 1016.57 1016.23 1015.94 1015.92 1016.13 1016.22 1015.92 1015.46 1014.72 1013.66 1013.05 1013.36 1013.40 1013.41 1013.35 1013.17 1013.07 1013.11 1013.11 1013.09 1013.16 1013.14 1013.26 1013.45 1013.67 1013.77 1013.93 1014.31 1014.59 1014.89 1015.29 1015.70 1016.17 1016.71 1017.22 1017.74 1018.50 1019.16 1019.71
1016.40 1017.25 1017.92 1018.38 1017.77 1017.00 1016.66 1015.58 1015.51 1015.51 1015.47 1015.36 1015.30 1014.55 1014.10 1013.84 1013.60 1013.21 1013.00 1012.95 1012.92 1012.99 1013.03 1013.01 1012.98 1012.84 1012.78 1012.72 1012.68 1012.96 1013.02 1013.52 1013.91 1014.30 1014.68 1015.12 1015.66 1016.20 1016.79 1017.32 1017.99 1018.68 1019.21 1019.46
1016.67 1017.56 1018.25 1018.78 1018.21 1017.60 1016.13 1015.32 1015.08 1015.04 1014.85 1014.98 1014.98 1014.66 1014.40 1014.06 1013.67 1013.17 1013.00 1013.03 1013.03 1013.11 1013.11 1012.97 1012.73 1012.67 1012.50 1012.25 1012.11 1012.04 1012.35 1012.83 1013.39 1013.85 1014.38 1014.79 1015.49 1016.14 1016.75 1017.42 1018.06 1018.68 1019.13 1019.49
1016.83 1017.68 1018.78 1019.19 1019.04 1017.80 1015.95 1015.25 1015.16 1015.16 1014.93 1014.79 1014.82 1014.65 1014.43 1014.23 1013.91 1013.37 1012.94 1012.89 1012.93 1012.98 1012.95 1012.92 1012.83 1012.64 1012.39 1012.09 1011.68 1011.78 1011.95 1012.26 1012.79 1013.33 1013.90 1014.29 1015.03 1015.90 1016.63 1017.26 1017.95 1018.57 1019.07 1019.38
1017.50 1017.77 1018.68 1019.58 1019.19 1017.96 1016.21 1015.42 1015.19 1015.34 1015.63 1015.26 1015.25 1015.18 1014.97 1014.62 1014.66 1014.01 1013.22 1013.22 1013.08 1012.81 1012.69 1012.65 1012.59 1012.37 1012.09 1011.39 1011.30 1011.37 1011.53 1011.77 1012.07 1012.41 1012.97 1013.67 1014.42 1015.22 1016.15 1016.95 1017.75 1018.24 1018.64 1019.04
1018.33 1018.83 1019.27 1019.54 1019.09 1017.60 1016.24 1015.76 1015.48 1016.32 1017.11 1016.10 1016.03 1015.93 1015.64 1015.62 1015.19 1014.23 1013.62 1013.29 1012.95 1012.65 1012.43 1012.30 1012.17 1012.01 1011.63 1011.21 1011.11 1011.05 1011.12 1011.14 1010.89 1011.67 1012.44 1013.32 1014.05 1014.90 1015.63 1016.55 1017.35 1017.97 1018.43 1018.80
1018.13 1018.87 1019.27 1019.30 1018.91 1017.95 1016.55 1016.24 1016.77 1017.43 1016.80 1016.86 1016.51 1016.36 1016.06 1015.56 1014.77 1014.01 1013.54 1012.97 1012.56 1012.28 1012.03 1011.89 1011.84 1011.64 1011.23 1010.87 1010.73 1010.49 1010.52 1010.21 1010.82 1011.42 1012.17 1013.01 1013.78 1014.61 1015.36 1016.06 1017.03 1017.76 1018.31 1018.72
1018.12 1018.00 1018.29 1018.49 1017.92 1017.20 1016.89 1016.82 1017.27 1017.44 1017.65 1017.29 1017.17 1016.61 1016.21 1015.52 1014.94 1014.34 1013.53 1012.98 1012.38 1011.92 1011.64 1011.59 1011.52 1011.31 1011.04 1010.71 1010.27 1010.24 1010.24 1010.28 1010.64 1011.30 1012.05 1012.74 1013.51 1014.29 1014.98 1015.75 1016.76 1017.51 1018.10 1018.35
1017.87 1017.77 1018.00 1018.14 1017.77 1017.42 1017.23 1017.35 1017.75 1017.92 1018.02 1017.97 1017.55 1017.19 1016.57 1015.78 1014.99 1014.01 1013.33 1012.71 1012.30 1011.63 1011.39 1011.06 1011.17 1011.00 1010.86 1010.72 1010.38 1009.90 1009.86 1010.14 1010.50 1011.20 1012.03 1012.67 1013.38 1014.23 1014.91 1015.57 1016.23 1016.91 1017.48 1017.84
1017.86 1017.90 1018.05 1018.07 1017.85 1017.69 1017.67 1017.84 1018.00 1018.04 1017.93 1017.81 1017.44 1016.95 1016.29 1015.68 1014.70 1013.99 1012.98 1012.35 1011.85 1011.42 1011.01 1010.79 1010.69 1010.64 1010.54 1010.56 1010.56 1010.21 1010.06 1010.23 1010.73 1011.34 1012.17 1012.85 1013.44 1014.25 1014.89 1015.36 1015.83 1016.29 1016.62 1017.01
1017.66 1017.59 1017.96 1018.00 1018.15 1018.34 1018.29 1018.20 1018.25 1018.15 1018.07 1017.59 1017.06 1016.48 1016.25 1015.66 1014.62 1013.79 1012.56 1011.66 1011.22 1010.78 1010.48 1010.24 1010.04 1010.23 1010.41 1010.42 1010.62 1010.65 1010.49 1010.50 1010.96 1011.66 1012.23 1012.87 1013.50 1014.14 1014.79 1015.27 1015.71 1016.03 1016.38 1016.63
Wind_Speed
3 3 6 5 4 3 13 5 11 4 12 10 7 14 3 5 5 4 4 3 7 6 3 6 7 6 6 8 7 9 11 14 12 9 6 4 7 4 3 5 9 9 5 6
4 2 7 7 2 3 12 9 12 15 16 6 5 7 4 5 3 2 3 5 6 5 5 4 2 3 8 8 11 10 13 12 11 8 6 4 4 2 2 3 4 6 7 7
4 6 9 5 3 8 4 13 8 15 7 5 8 4 5 5 7 7 5 7 5 8 7 6 4 5 4 5 7 10 9 10 10 13 4 1 1 3 2 3 3 2 4 3
3 8 9 5 7 8 5 4 17 19 4 4 4 1 7 7 9 10 9 7 9 9 6 6 6 5 8 10 4 7 9 11 9 7 6 7 5 5 4 4 3 6 9 8
2 8 6 6 3 0 3 14 14 13 7 3 3 2 4 3 14 12 9 10 10 10 9 9 9 9 9 7 7 5 6 6 6 7 8 7 6 4 3 1 4 3 5 6
5 1 5 4 3 7 9 19 13 7 3 1 6 2 4 5 8 6 15 9 9 9 9 9 7 6 7 4 5 5 6 5 4 6 6 7 7 4 3 2 4 1 1 3
7 6 5 4 8 11 14 5 4 3 1 3 6 4 9 8 8 8 9 10 10 8 6 7 8 8 7 7 8 5 6 6 3 3 5 6 6 5 5 4 4 4 2 2
5 6 10 9 3 5 3 1 4 4 4 2 3 5 7 3 7 5 3 2 4 6 4 6 8 8 8 9 7 7 8 5 6 4 2 2 4 5 5 7 7 4 2 2
4 4 5 7 4 3 3 6 0 6 2 5 3 7 8 4 5 6 7 7 7 7 4 5 7 7 8 7 8 8 6 6 5 5 5 4 4 4 5 5 8 6 6 2
2 6 4 4 3 5 2 3 1 2 3 1 4 5 5 3 2 3 4 6 6 5 6 6 6 5 3 3 3 5 4 5 5 5 5 5 6 6 6 10 9 8 7 5
3 4 4 2 4 3 4 3 6 5 3 4 2 6 4 6 3 2 1 3 3 4 4 5 5 3 1 3 5 5 5 6 5 5 4 6 5 4 4 9 11 11 10 8
1 4 4 1 3 1 0 3 4 5 2 2 3 5 3 4 2 2 3 5 6 5 4 5 6 5 3 1 2 4 5 6 6 6 5 6 6 3 2 2 7 8 8 5
1 3 4 7 6 5 3 2 4 5 3 2 5 5 3 5 5 2 2 4 4 5 7 6 6 6 3 1 2 4 5 5 6 6 7 5 4 5 4 3 6 6 5 4
3 3 4 6 4 4 2 0 2 4 4 2 5 4 4 3 2 4 4 4 6 6 6 5 6 6 5 3 4 5 5 6 6 7 7 7 6 7 5 5 5 6 4 6
4 3 3 2 1 2 1 2 4 4 4 5 2 6 5 7 5 7 6 6 7 8 8 7 6 5 5 5 6 5 5 6 6 7 7 7 7 6 6 5 6 5 5 3
3 1 3 4 7 1 2 4 4 4 4 6 5 10 8 9 4 5 8 7 7 7 6 6 6 7 7 7 7 6 7 8 7 7 7 6 6 6 6 6 6 6 4 4
3 3 3 2 4 4 4 2 3 2 2 3 4 8 3 6 7 7 7 7 6 6 7 7 7 6 6 7 8 9 8 7 7 7 7 7 7 7 7 7 7 6 6 4
3 3 2 1 4 3 6 3 4 5 5 5 6 6 7 6 6 7 4 3 5 5 6 8 6 6 7 6 7 7 8 9 9 8 7 7 7 7 7 7 6 5 4 5
2 4 3 3 1 6 2 1 1 2 6 3 4 5 4 5 5 6 5 5 6 6 7 7 6 8 7 8 7 7 7 9 9 10 9 9 9 8 8 7 7 4 5 4
5 5 4 2 2 4 5 2 2 2 5 4 3 5 6 5 5 5 4 4 8 8 7 7 7 7 7 9 5 7 9 10 11 12 11 9 10 10 10 8 8 5 4 4
2 3 4 2 2 7 4 4 0 1 5 7 5 6 7 5 5 8 9 8 6 7 8 6 6 7 7 7 5 8 7 12 13 9 9 9 9 10 9 8 5 5 4 4
6 5 3 3 2 6 3 3 0 3 5 5 6 5 8 8 11 10 12 13 10 9 8 7 6 6 7 6 5 8 10 7 7 10 10 9 9 7 7 9 6 5 5 5
1 5 4 7 5 2 2 3 3 2 4 6 7 7 8 11 10 10 9 12 14 14 7 6 6 6 6 6 5 6 5 7 9 9 9 9 9 8 8 9 7 5 5 4
1 2 2 2 3 3 5 0 4 5 4 7 9 11 12 15 14 14 13 13 13 13 11 5 6 6 6 5 4 4 6 6 9 9 8 7 8 7 6 5 6 5 5 4
4 3 3 3 3 5 1 2 4 4 5 10 11 10 15 17 18 16 15 14 12 12 14 6 6 6 6 2 2 2 5 6 7 8 7 6 5 6 6 5 6 6 5 7
5 6 5 5 3 3 5 5 6 7 11 9 13 15 16 17 19 18 18 14 11 12 14 8 7 5 5 2 1 1 4 5 7 6 5 5 5 5 4 5 3 8 8 12
Wind_Direction
213 240 202 223 176 283 151 162 153 139 127 169 201 247 295 322 360 341 330 320 285 260 252 207 196 183 181 174 185 194 186 191 185 194 192 221 236 181 204 166 193 196 206 194
221 212 209 166 209 309 175 161 167 145 159 117 136 290 333 323 291 231 228 273 249 267 269 259 247 200 200 181 197 193 192 194 199 194 192 202 172 164 182 183 189 198 183 190
206 145 149 133 276 248 176 158 142 130 138 95 134 283 321 279 284 283 226 231 235 241 220 233 229 217 256 248 198 203 202 191 193 203 184 121 61 87 187 154 167 153 161 127
95 135 132 173 238 176 114 154 118 124 110 84 6 130 245 209 244 247 264 228 229 236 237 246 228 214 221 228 242 241 209 203 215 206 198 183 211 186 187 174 159 172 155 148
4 133 131 187 6 205 124 113 105 89 72 136 339 4 278 130 240 241 236 249 236 213 217 228 228 223 218 223 216 214 243 215 193 194 214 208 212 233 112 163 155 59 35 26
62 295 14 357 332 102 96 87 66 65 71 267 168 170 243 186 205 243 234 225 228 227 220 236 239 245 249 237 215 189 207 233 199 200 205 205 223 181 159 161 143 121 357 49
32 3 345 28 50 48 105 100 93 69 90 234 181 158 257 267 265 226 234 221 221 226 221 225 239 242 244 223 206 191 180 212 180 220 189 186 209 185 156 146 118 145 135 148
44 13 3 342 60 110 37 134 107 131 173 174 92 232 266 314 309 334 191 303 275 263 249 243 242 242 239 237 213 191 176 183 181 169 190 151 148 144 149 141 123 121 68 34
114 44 321 29 35 25 329 37 48 112 35 70 199 295 308 340 28 40 48 53 45 32 17 335 313 250 236 221 214 202 161 138 167 163 147 167 179 143 148 119 120 162 113 145
131 78 345 338 52 329 65 146 338 31 130 182 329 307 252 310 214 46 51 33 13 6 10 352 341 320 261 224 172 134 141 158 157 153 140 139 136 153 158 121 122 120 126 129
108 87 284 357 17 93 354 25 44 78 69 137 130 272 245 289 301 247 319 346 340 338 336 322 324 342 150 142 148 144 152 147 153 143 121 123 126 147 169 148 151 146 137 161
2 108 76 112 293 274 67 122 115 112 223 69 130 277 323 334 125 129 313 10 6 355 332 326 335 348 22 35 126 145 143 150 154 147 132 129 112 56 358 263 157 162 136 134
86 23 64 358 358 347 31 22 96 89 57 210 110 270 336 60 58 49 291 307 320 313 318 326 338 338 327 258 182 177 173 168 154 144 135 124 116 105 87 68 82 65 64 88
91 96 142 171 187 137 133 238 120 93 90 185 225 280 329 9 338 318 286 305 318 285 272 280 286 275 284 255 223 210 204 179 171 158 153 153 157 145 161 146 107 114 123 116
81 78 60 71 63 107 133 195 165 153 185 162 242 217 264 294 270 252 246 289 300 284 276 258 265 286 285 270 248 228 214 188 178 169 171 173 161 150 139 125 113 105 108 134
21 84 75 25 22 246 284 267 237 203 201 253 246 281 245 278 250 270 267 272 262 269 289 277 269 255 252 238 235 220 210 198 176 181 185 169 154 147 149 137 126 125 131 164
64 110 54 314 336 326 346 247 221 257 209 194 223 244 356 287 270 266 263 235 243 276 291 291 284 285 270 250 230 220 201 173 183 180 176 167 159 154 152 138 139 155 168 154
112 90 85 211 13 25 249 298 237 220 253 214 290 287 285 259 275 279 272 271 275 266 276 289 294 286 283 276 241 225 175 181 182 180 178 161 157 156 148 147 155 158 157 182
72 114 82 105 168 283 318 15 89 64 283 198 250 291 283 309 313 296 229 228 244 255 264 258 264 273 272 272 258 206 182 182 175 185 183 169 160 156 157 162 161 161 165 179
57 68 105 107 111 239 254 340 107 90 308 329 309 315 316 352 337 263 263 254 276 268 260 267 262 264 269 274 263 196 197 181 193 188 182 165 164 164 169 167 165 161 163 161
71 31 139 157 248 287 263 307 107 110 259 332 360 331 328 316 265 291 304 283 256 260 266 260 275 271 272 285 272 221 189 198 204 159 154 161 162 165 165 153 146 156 150 138
164 140 181 113 156 279 6 6 139 262 289 302 319 312 315 306 307 312 318 312 304 286 283 272 271 278 292 296 250 229 207 201 146 153 156 160 159 158 154 152 146 155 157 168
197 178 181 178 215 219 299 134 148 260 289 316 322 316 318 301 304 303 299 307 308 301 274 264 258 278 287 306 266 222 199 151 144 150 157 155 148 153 153 151 154 145 172 171
255 152 174 56 224 250 285 284 57 6 342 332 323 325 317 306 302 297 303 303 302 303 278 249 261 266 273 298 295 221 163 152 142 140 137 141 147 146 152 149 155 162 175 182
198 119 167 264 257 305 148 60 15 348 332 327 317 308 311 309 304 301 293 292 292 295 294 234 231 246 251 250 290 139 132 125 123 125 137 142 139 158 155 166 175 184 192 190
185 178 164 223 195 192 265 347 339 343 321 301 315 311 311 306 301 296 289 286 288 288 286 227 219 226 247 207 152 154 132 128 129 130 139 153 149 152 165 170 169 211 212 215